| time (UTC) | temp C | wind direction | speed KPH | gust KPH | rain 1hr cm | rain 24hr cm | rain mn cm | humidity % | barometer mb |
| 20260508130023 | 8 | 290 | 6.4 | 16.1 | 0.00 | 0.00 | 0.00 | 74 | 1011.0 |
| 20260508124518 | 7 | 299 | 1.6 | 6.4 | 0.00 | 0.03 | 0.00 | 78 | 1011.1 |
| 20260508123014 | 7 | 234 | 0.0 | 8.0 | 0.00 | 0.03 | 0.00 | 83 | 1011.0 |
| 20260508121511 | 6 | 260 | 0.0 | 0.0 | 0.00 | 0.03 | 0.00 | 85 | 1011.4 |
| 20260508120005 | 6 | 259 | 0.0 | 1.6 | 0.00 | 0.03 | 0.00 | 88 | 1011.0 |
| 20260508114601 | 5 | 243 | 0.0 | 0.0 | 0.00 | 0.13 | 0.00 | 87 | 1010.3 |
| 20260508113108 | 5 | 243 | 0.0 | 0.0 | 0.00 | 0.13 | 0.00 | 86 | 1010.0 |
| 20260508111602 | 6 | 243 | 0.0 | 0.0 | 0.00 | 0.13 | 0.00 | 85 | 1009.9 |
| 20260508110054 | 6 | 243 | 0.0 | 1.6 | 0.00 | 0.13 | 0.00 | 84 | 1010.0 |
| 20260508104542 | 6 | 314 | 0.0 | 0.0 | 0.00 | 0.25 | 0.00 | 82 | 1010.0 |
| 20260508103041 | 6 | 291 | 0.0 | 3.2 | 0.00 | 0.25 | 0.00 | 80 | 1009.6 |
| 20260508101534 | 7 | 302 | 0.0 | 1.6 | 0.00 | 0.25 | 0.00 | 76 | 1009.4 |
| 20260508100031 | -17 | 0.0 | 0.0 | 0.00 | 0.25 | 0.00 | 1008.8 | ||
| 20260508094524 | -67 | 252 | 3.2 | 8.0 | 0.00 | 0.36 | 0.00 | 75 | 1009.0 |
| 20260508093027 | 7 | 272 | 1.6 | 6.4 | 0.00 | 0.36 | 0.00 | 75 | 1008.8 |
| 20260508091521 | 7 | 230 | 1.6 | 4.8 | 0.00 | 0.36 | 0.00 | 75 | 1008.6 |
| 20260508090024 | 7 | 236 | 1.6 | 4.8 | 0.00 | 0.36 | 0.00 | 75 | 1008.9 |
| 20260508084516 | 7 | 238 | 1.6 | 4.8 | 0.00 | 0.48 | 0.00 | 74 | 1009.1 |
| 20260508083013 | 7 | 242 | 0.0 | 1.6 | 0.00 | 0.48 | 0.00 | 79 | 1009.3 |
| 20260508081513 | 7 | 231 | 0.0 | 3.2 | 0.00 | 0.48 | 0.00 | 78 | 1009.4 |
| 20260508080014 | 7 | 248 | 0.0 | 0.0 | 0.00 | 0.48 | 0.00 | 76 | 1009.6 |
| 20260508074518 | 7 | 270 | 0.0 | 4.8 | 0.00 | 0.56 | 0.00 | 77 | 1009.9 |
| 20260508073008 | 7 | 246 | 0.0 | 1.6 | 0.00 | 0.56 | 0.00 | 78 | 1010.2 |
| 20260508071505 | 8 | 52 | 0.0 | 0.0 | 0.00 | 0.56 | 0.00 | 77 | 1010.0 |
| 20260508070104 | 8 | 318 | 0.0 | 1.6 | 0.00 | 0.56 | 0.00 | 71 | 1009.9 |
| 20260508064558 | 9 | 271 | 1.6 | 8.0 | 0.00 | 0.58 | 0.00 | 71 | 1009.7 |
| 20260508063154 | 8 | 231 | 1.6 | 8.0 | 0.00 | 0.58 | 0.00 | 74 | 1009.5 |
| 20260508061552 | 8 | 257 | 1.6 | 4.8 | 0.00 | 0.58 | 0.00 | 76 | 1009.4 |
| 20260508060050 | 8 | 283 | 0.0 | 1.6 | 0.00 | 0.58 | 0.00 | 79 | 1009.5 |
| 20260508054549 | 9 | 232 | 0.0 | 0.0 | 0.00 | 0.58 | 0.58 | 79 | 1009.6 |
| 20260508053113 | 10 | 239 | 0.0 | 1.6 | 0.00 | 0.58 | 0.58 | 76 | 1010.6 |
| 20260508051547 | 11 | 262 | 0.0 | 3.2 | 0.00 | 0.58 | 0.58 | 61 | 1010.8 |
| 20260508050047 | 11 | 285 | 0.0 | 1.6 | 0.00 | 0.58 | 0.58 | 62 | 1009.9 |
| 20260508044546 | 11 | 192 | 0.0 | 0.0 | 0.00 | 0.58 | 0.58 | 61 | 1009.9 |
| 20260508043046 | 12 | 190 | 0.0 | 0.0 | 0.00 | 0.58 | 0.58 | 57 | 1009.8 |
| 20260508041610 | 12 | 238 | 0.0 | 1.6 | 0.00 | 0.58 | 0.58 | 54 | 1009.9 |
| 20260508040104 | 13 | 297 | 0.0 | 3.2 | 0.00 | 0.58 | 0.58 | 51 | 1010.1 |
| 20260508034544 | 13 | 297 | 0.0 | 6.4 | 0.00 | 0.58 | 0.58 | 47 | 1010.2 |
| 20260508033042 | 13 | 257 | 0.0 | 1.6 | 0.00 | 0.58 | 0.58 | 47 | 1009.4 |
| 20260508031542 | 14 | 269 | 1.6 | 8.0 | 0.00 | 0.58 | 0.58 | 42 | 1009.1 |
| 20260508030042 | 15 | 299 | 4.8 | 16.1 | 0.00 | 0.58 | 0.58 | 41 | 1009.0 |
| 20260508024546 | 14 | 309 | 6.4 | 14.5 | 0.00 | 0.58 | 0.58 | 43 | 1009.0 |
| 20260508023041 | 15 | 285 | 3.2 | 11.3 | 0.00 | 0.58 | 0.58 | 42 | 1009.0 |
| 20260508021541 | 15 | 258 | 1.6 | 9.7 | 0.00 | 0.58 | 0.58 | 39 | 1008.8 |
| 20260508020046 | 16 | 214 | 1.6 | 8.0 | 0.00 | 0.58 | 0.58 | 37 | 1009.2 |
| 20260508014539 | 16 | 233 | 0.0 | 1.6 | 0.00 | 0.61 | 0.58 | 38 | 1008.8 |
| 20260508013039 | 16 | 259 | 0.0 | 1.6 | 0.00 | 0.61 | 0.58 | 35 | 1008.6 |
| 20260508011549 | 16 | 302 | 1.6 | 9.7 | 0.00 | 0.61 | 0.58 | 33 | 1008.6 |
| 20260508010038 | 16 | 275 | 0.0 | 0.0 | 0.00 | 0.61 | 0.58 | 34 | 1008.6 |
| 20260508004537 | 16 | 236 | 0.0 | 0.0 | 0.00 | 0.69 | 0.58 | 35 | 1008.3 |
| 20260508003038 | 16 | 259 | 0.0 | 0.0 | 0.00 | 0.69 | 0.58 | 33 | 1008.1 |
| 20260508001540 | 16 | 231 | 0.0 | 0.0 | 0.00 | 0.69 | 0.58 | 36 | 1008.0 |
| 20260508000034 | 17 | 231 | 0.0 | 0.0 | 0.00 | 0.69 | 0.58 | 32 | 1008.4 |
| 20260507234533 | 17 | 229 | 0.0 | 0.0 | 0.00 | 0.84 | 0.58 | 30 | 1008.4 |
| 20260507233052 | 17 | 245 | 0.0 | 0.0 | 0.00 | 0.84 | 0.58 | 34 | 1008.3 |
| 20260507231536 | 17 | 203 | 0.0 | 0.0 | 0.00 | 0.84 | 0.58 | 32 | 1008.5 |
| 20260507230029 | 17 | 203 | 0.0 | 0.0 | 0.00 | 0.84 | 0.58 | 33 | 1008.6 |
| 20260507224530 | 18 | 199 | 0.0 | 0.0 | 0.00 | 1.09 | 0.58 | 28 | 1008.7 |
| 20260507223026 | 18 | 171 | 0.0 | 4.8 | 0.00 | 1.09 | 0.58 | 26 | 1008.9 |
| 20260507221524 | 19 | 298 | 0.0 | 4.8 | 0.00 | 1.09 | 0.58 | 27 | 1009.2 |
| 20260507220020 | 19 | 285 | 0.0 | 6.4 | 0.00 | 1.09 | 0.58 | 26 | 1009.6 |
| 20260507214517 | 19 | 264 | 0.0 | 6.4 | 0.00 | 1.24 | 0.58 | 27 | 1010.2 |
| 20260507213019 | 18 | 184 | 0.0 | 6.4 | 0.00 | 1.24 | 0.58 | 27 | 1010.6 |
| 20260507211508 | 19 | 236 | 1.6 | 8.0 | 0.00 | 1.24 | 0.58 | 26 | 1011.0 |
| 20260507210007 | 18 | 96 | 0.0 | 4.8 | 0.00 | 1.24 | 0.58 | 28 | 1011.3 |
| 20260507204502 | 18 | 115 | 0.0 | 3.2 | 0.00 | 1.30 | 0.58 | 29 | 1011.5 |
| 20260507203103 | 18 | 169 | 0.0 | 8.0 | 0.00 | 1.30 | 0.58 | 29 | 1012.0 |
| 20260507201557 | 18 | 99 | 0.0 | 6.4 | 0.00 | 1.30 | 0.58 | 30 | 1012.2 |
| 20260507200054 | 18 | 213 | 0.0 | 6.4 | 0.00 | 1.30 | 0.58 | 30 | 1012.5 |
| 20260507194616 | 18 | 172 | 1.6 | 8.0 | 0.00 | 1.32 | 0.58 | 28 | 1012.7 |
| 20260507193050 | 18 | 190 | 0.0 | 8.0 | 0.00 | 1.32 | 0.58 | 26 | 1012.8 |
| 20260507191550 | 18 | 309 | 1.6 | 14.5 | 0.00 | 1.32 | 0.58 | 27 | 1013.3 |
| 20260507190052 | 19 | 170 | 0.0 | 4.8 | 0.00 | 1.32 | 0.58 | 28 | 1013.6 |
| 20260507184540 | 18 | 146 | 0.0 | 6.4 | 0.00 | 1.32 | 0.58 | 32 | 1013.6 |
| 20260507183044 | 17 | 27 | 0.0 | 3.2 | 0.00 | 1.32 | 0.58 | 32 | 1013.9 |
| 20260507181533 | 16 | 161 | 0.0 | 3.2 | 0.00 | 1.32 | 0.58 | 34 | 1014.2 |
| 20260507180034 | 15 | 229 | 0.0 | 0.0 | 0.00 | 1.32 | 0.58 | 37 | 1014.5 |
| 20260507174526 | 14 | 279 | 0.0 | 0.0 | 0.00 | 1.32 | 0.58 | 40 | 1014.8 |
| 20260507173035 | 13 | 279 | 0.0 | 0.0 | 0.00 | 1.32 | 0.58 | 42 | 1015.1 |
| 20260507171538 | 13 | 279 | 0.0 | 0.0 | 0.00 | 1.32 | 0.58 | 39 | 1015.4 |
| 20260507170021 | 13 | 279 | 0.0 | 3.2 | 0.00 | 1.32 | 0.58 | 35 | 1015.6 |
| 20260507164529 | 13 | 271 | 0.0 | 9.7 | 0.00 | 1.32 | 0.58 | 36 | 1015.7 |
| 20260507163020 | 12 | 236 | 1.6 | 16.1 | 0.00 | 1.32 | 0.58 | 36 | 1015.5 |
| 20260507161527 | 12 | 249 | 6.4 | 17.7 | 0.00 | 1.32 | 0.58 | 37 | 1015.4 |
| 20260507160022 | 11 | 234 | 1.6 | 17.7 | 0.00 | 1.32 | 0.58 | 38 | 1015.4 |
| 20260507154518 | 11 | 50 | 0.0 | 17.7 | 0.00 | 1.35 | 0.58 | 40 | 1016.1 |
| 20260507153017 | 12 | 286 | 6.4 | 16.1 | 0.00 | 1.35 | 0.58 | 38 | 1015.9 |
| 20260507151516 | 13 | 261 | 3.2 | 11.3 | 0.00 | 1.35 | 0.58 | 36 | 1015.8 |
| 20260507150013 | 14 | 167 | 1.6 | 14.5 | 0.00 | 1.35 | 0.58 | 35 | 1016.3 |
| 20260507144510 | 13 | 4 | 1.6 | 11.3 | 0.00 | 1.35 | 0.58 | 38 | 1016.1 |
| 20260507143018 | 12 | 300 | 0.0 | 12.9 | 0.00 | 1.35 | 0.58 | 40 | 1016.0 |
| 20260507141508 | 13 | 96 | 1.6 | 12.9 | 0.00 | 1.35 | 0.58 | 38 | 1016.1 |
| 20260507140005 | 13 | 126 | 0.0 | 17.7 | 0.00 | 1.35 | 0.58 | 40 | 1016.4 |
| 20260507134503 | 12 | 255 | 0.0 | 11.3 | 0.00 | 1.35 | 0.58 | 41 | 1016.3 |
| 20260507133105 | 11 | 218 | 1.6 | 16.1 | 0.00 | 1.35 | 0.58 | 41 | 1016.6 |
| 20260507131558 | 10 | 314 | 1.6 | 14.5 | 0.03 | 1.35 | 0.58 | 42 | 1016.8 |